Time,TemperatureF,DewpointF,PressureIn,WindDirection,WindDirectionDegrees,WindSpeedMPH,WindSpeedGustMPH,Humidity,HourlyPrecipIn,Conditions,Clouds,dailyrainin,SoftwareType,DateUTC
2013-03-02 00:06:00,32.0,30.0,30.06,North,5,2.0,5.0,92,0.00,,,0.00,weatherlink.com 1.10,2013-03-02 05:06:00,
2013-03-02 00:21:00,32.0,30.0,30.06,North,5,0.0,5.0,92,0.00,,,0.00,weatherlink.com 1.10,2013-03-02 05:21:00,
2013-03-02 00:36:00,31.9,30.0,30.06,NNE,26,0.0,5.0,92,0.00,,,0.00,weatherlink.com 1.10,2013-03-02 05:36:00,
2013-03-02 00:51:00,31.9,30.0,30.06,North,5,1.0,4.0,92,0.00,,,0.00,weatherlink.com 1.10,2013-03-02 05:51:00,
2013-03-02 01:06:00,31.8,30.0,30.06,North,355,2.0,2.0,92,0.00,,,0.00,weatherlink.com 1.10,2013-03-02 06:06:00,
2013-03-02 01:21:00,31.8,30.0,30.06,North,355,1.0,4.0,92,0.00,,,0.00,weatherlink.com 1.10,2013-03-02 06:21:00,
2013-03-02 01:36:00,31.8,30.0,30.06,NNE,23,0.0,4.0,92,0.00,,,0.00,weatherlink.com 1.10,2013-03-02 06:36:00,
2013-03-02 01:51:00,31.8,30.0,30.07,NNW,331,0.0,4.0,92,0.00,,,0.00,weatherlink.com 1.10,2013-03-02 06:51:00,
2013-03-02 02:06:00,31.8,30.0,30.06,North,349,0.0,6.0,91,0.00,,,0.00,weatherlink.com 1.10,2013-03-02 07:06:00,
2013-03-02 02:21:00,31.7,29.0,30.07,NNE,17,0.0,6.0,90,0.00,,,0.00,weatherlink.com 1.10,2013-03-02 07:21:00,
2013-03-02 02:36:00,31.5,29.0,30.07,NNE,15,3.0,6.0,89,0.00,,,0.00,weatherlink.com 1.10,2013-03-02 07:36:00,
2013-03-02 02:51:00,31.4,29.0,30.06,North,10,5.0,7.0,89,0.00,,,0.00,weatherlink.com 1.10,2013-03-02 07:51:00,
2013-03-02 03:06:00,31.2,29.0,30.06,NNE,22,2.0,5.0,90,0.00,,,0.00,weatherlink.com 1.10,2013-03-02 08:06:00,
2013-03-02 03:21:00,31.1,28.0,30.05,NNE,22,3.0,4.0,89,0.00,,,0.00,weatherlink.com 1.10,2013-03-02 08:21:00,
2013-03-02 03:36:00,31.0,29.0,30.05,NNE,29,0.0,2.0,90,0.00,,,0.00,weatherlink.com 1.10,2013-03-02 08:36:00,
2013-03-02 03:51:00,31.0,28.0,30.05,NNE,28,3.0,4.0,89,0.00,,,0.00,weatherlink.com 1.10,2013-03-02 08:51:00,
2013-03-02 04:06:00,31.0,28.0,30.05,NNE,21,5.0,7.0,87,0.00,,,0.00,weatherlink.com 1.10,2013-03-02 09:06:00,
2013-03-02 04:21:00,30.8,27.0,30.05,NNE,22,3.0,6.0,86,0.00,,,0.00,weatherlink.com 1.10,2013-03-02 09:21:00,
2013-03-02 04:36:00,30.6,27.0,30.05,NE,44,3.0,6.0,85,0.00,,,0.00,weatherlink.com 1.10,2013-03-02 09:36:00,
2013-03-02 04:51:00,30.4,26.0,30.05,NNE,30,2.0,7.0,84,0.00,,,0.00,weatherlink.com 1.10,2013-03-02 09:51:00,
2013-03-02 05:21:00,30.1,26.0,30.06,NNE,32,2.0,6.0,85,0.00,,,0.00,weatherlink.com 1.10,2013-03-02 10:21:00,
2013-03-02 05:37:00,30.1,26.0,30.06,NE,38,4.0,7.0,85,0.00,,,0.00,weatherlink.com 1.10,2013-03-02 10:37:00,
2013-03-02 05:52:00,29.9,26.0,30.06,NNE,32,2.0,6.0,85,0.00,,,0.00,weatherlink.com 1.10,2013-03-02 10:52:00,
2013-03-02 06:07:00,29.9,26.0,30.06,NNE,31,4.0,6.0,85,0.00,,,0.00,weatherlink.com 1.10,2013-03-02 11:07:00,
2013-03-02 06:22:00,29.8,26.0,30.06,North,10,7.0,8.0,84,0.00,,,0.00,weatherlink.com 1.10,2013-03-02 11:22:00,
2013-03-02 06:37:00,29.7,25.0,30.06,NNE,26,4.0,6.0,84,0.00,,,0.00,weatherlink.com 1.10,2013-03-02 11:37:00,
2013-03-02 06:52:00,29.6,26.0,30.07,NNE,25,1.0,6.0,85,0.00,,,0.00,weatherlink.com 1.10,2013-03-02 11:52:00,
2013-03-02 07:07:00,29.6,25.0,30.07,NE,34,3.0,7.0,84,0.00,,,0.00,weatherlink.com 1.10,2013-03-02 12:07:00,
2013-03-02 07:22:00,29.6,26.0,30.07,NNE,30,0.0,5.0,85,0.00,,,0.00,weatherlink.com 1.10,2013-03-02 12:22:00,
2013-03-02 07:37:00,29.5,25.0,30.08,NNE,13,2.0,4.0,84,0.00,,,0.00,weatherlink.com 1.10,2013-03-02 12:37:00,
2013-03-02 07:52:00,29.5,25.0,30.08,North,10,3.0,4.0,84,0.00,,,0.00,weatherlink.com 1.10,2013-03-02 12:52:00,
2013-03-02 08:07:00,29.5,26.0,30.09,NE,35,3.0,5.0,85,0.00,,,0.00,weatherlink.com 1.10,2013-03-02 13:07:00,
2013-03-02 08:22:00,29.6,26.0,30.09,North,351,2.0,6.0,86,0.00,,,0.00,weatherlink.com 1.10,2013-03-02 13:22:00,
2013-03-02 08:37:00,29.9,26.0,30.10,NNW,342,1.0,5.0,86,0.00,,,0.00,weatherlink.com 1.10,2013-03-02 13:37:00,
2013-03-02 08:52:00,30.1,26.0,30.10,NNE,25,5.0,5.0,85,0.00,,,0.00,weatherlink.com 1.10,2013-03-02 13:52:00,
2013-03-02 09:07:00,30.4,26.0,30.10,NW,323,2.0,5.0,85,0.00,,,0.00,weatherlink.com 1.10,2013-03-02 14:07:00,
2013-03-02 09:22:00,30.7,26.0,30.10,NNE,18,1.0,10.0,84,0.00,,,0.00,weatherlink.com 1.10,2013-03-02 14:22:00,
2013-03-02 09:37:00,31.3,26.0,30.10,NNE,19,4.0,7.0,82,0.00,,,0.00,weatherlink.com 1.10,2013-03-02 14:37:00,
2013-03-02 09:52:00,31.6,26.0,30.10,NNW,340,2.0,12.0,81,0.00,,,0.00,weatherlink.com 1.10,2013-03-02 14:52:00,
2013-03-02 10:07:00,31.4,26.0,30.10,NW,314,4.0,8.0,80,0.00,,,0.00,weatherlink.com 1.10,2013-03-02 15:07:00,
2013-03-02 10:22:00,31.2,26.0,30.11,North,350,0.0,8.0,81,0.00,,,0.00,weatherlink.com 1.10,2013-03-02 15:22:00,
2013-03-02 10:37:00,31.4,26.0,30.11,NW,310,4.0,11.0,80,0.00,,,0.00,weatherlink.com 1.10,2013-03-02 15:37:00,
2013-03-02 10:52:00,31.7,26.0,30.11,NNE,26,4.0,8.0,78,0.00,,,0.00,weatherlink.com 1.10,2013-03-02 15:52:00,
2013-03-02 11:07:00,31.6,26.0,30.11,NW,314,0.0,8.0,80,0.00,,,0.00,weatherlink.com 1.10,2013-03-02 16:07:00,
2013-03-02 11:22:00,31.8,25.0,30.11,North,351,2.0,11.0,77,0.00,,,0.00,weatherlink.com 1.10,2013-03-02 16:22:00,
2013-03-02 11:37:00,31.4,24.0,30.12,North,349,3.0,9.0,75,0.00,,,0.00,weatherlink.com 1.10,2013-03-02 16:37:00,
2013-03-02 11:52:00,31.3,24.0,30.12,WNW,302,4.0,11.0,74,0.00,,,0.00,weatherlink.com 1.10,2013-03-02 16:52:00,
2013-03-02 12:07:00,31.3,25.0,30.12,NNE,13,6.0,11.0,76,0.00,,,0.00,weatherlink.com 1.10,2013-03-02 17:07:00,
2013-03-02 12:22:00,31.0,24.0,30.12,NNE,24,5.0,14.0,76,0.00,,,0.00,weatherlink.com 1.10,2013-03-02 17:22:00,
2013-03-02 12:37:00,30.7,24.0,30.12,NE,48,3.0,9.0,76,0.00,,,0.00,weatherlink.com 1.10,2013-03-02 17:37:00,
2013-03-02 12:52:00,30.5,24.0,30.12,NNE,27,6.0,11.0,76,0.00,,,0.00,weatherlink.com 1.10,2013-03-02 17:52:00,
2013-03-02 13:07:00,30.5,23.0,30.12,NW,305,6.0,11.0,74,0.00,,,0.00,weatherlink.com 1.10,2013-03-02 18:07:00,
2013-03-02 13:22:00,30.4,23.0,30.11,NNW,346,11.0,11.0,74,0.00,,,0.00,weatherlink.com 1.10,2013-03-02 18:22:00,
2013-03-02 13:37:00,30.3,23.0,30.11,North,355,9.0,9.0,73,0.00,,,0.00,weatherlink.com 1.10,2013-03-02 18:37:00,
2013-03-02 13:52:00,30.4,23.0,30.11,NNW,331,3.0,9.0,73,0.00,,,0.00,weatherlink.com 1.10,2013-03-02 18:52:00,
2013-03-02 14:07:00,31.0,23.0,30.11,North,351,3.0,7.0,73,0.00,,,0.00,weatherlink.com 1.10,2013-03-02 19:07:00,
2013-03-02 14:22:00,31.8,24.0,30.11,NNW,346,4.0,9.0,72,0.00,,,0.00,weatherlink.com 1.10,2013-03-02 19:22:00,
2013-03-02 14:37:00,31.9,23.0,30.10,NNW,344,5.0,11.0,71,0.00,,,0.00,weatherlink.com 1.10,2013-03-02 19:37:00,
2013-03-02 14:52:00,31.6,22.0,30.10,North,355,3.0,12.0,69,0.00,,,0.00,weatherlink.com 1.10,2013-03-02 19:52:00,
2013-03-02 15:07:00,31.6,22.0,30.10,NE,42,4.0,10.0,69,0.00,,,0.00,weatherlink.com 1.10,2013-03-02 20:07:00,
2013-03-02 15:22:00,31.6,23.0,30.10,North,355,2.0,10.0,70,0.00,,,0.00,weatherlink.com 1.10,2013-03-02 20:22:00,
2013-03-02 15:37:00,31.9,23.0,30.10,NW,318,4.0,6.0,69,0.00,,,0.00,weatherlink.com 1.10,2013-03-02 20:37:00,
2013-03-02 15:53:00,31.8,23.0,30.10,NW,313,4.0,8.0,70,0.00,,,0.00,weatherlink.com 1.10,2013-03-02 20:53:00,
2013-03-02 16:07:00,31.7,23.0,30.10,NNE,19,2.0,8.0,70,0.02,,,0.02,weatherlink.com 1.10,2013-03-02 21:07:00,
2013-03-02 16:22:00,31.6,22.0,30.11,NNE,33,9.0,12.0,69,0.02,,,0.02,weatherlink.com 1.10,2013-03-02 21:22:00,
2013-03-02 16:37:00,31.6,23.0,30.11,NNE,23,6.0,8.0,71,0.02,,,0.02,weatherlink.com 1.10,2013-03-02 21:37:00,
2013-03-02 16:52:00,31.3,23.0,30.11,North,360,3.0,8.0,70,0.02,,,0.02,weatherlink.com 1.10,2013-03-02 21:52:00,
2013-03-02 17:07:00,31.4,22.0,30.11,NNW,333,2.0,6.0,69,0.00,,,0.02,weatherlink.com 1.10,2013-03-02 22:07:00,
2013-03-02 17:22:00,31.3,21.0,30.11,NNW,348,2.0,10.0,67,0.00,,,0.02,weatherlink.com 1.10,2013-03-02 22:22:00,
2013-03-02 17:37:00,31.2,22.0,30.12,NNW,332,0.0,6.0,70,0.00,,,0.02,weatherlink.com 1.10,2013-03-02 22:37:00,
2013-03-02 17:52:00,31.2,22.0,30.12,NW,325,4.0,7.0,70,0.00,,,0.02,weatherlink.com 1.10,2013-03-02 22:52:00,
2013-03-02 18:07:00,30.9,23.0,30.13,NW,326,8.0,8.0,71,0.00,,,0.02,weatherlink.com 1.10,2013-03-02 23:07:00,
2013-03-02 18:22:00,30.6,23.0,30.13,NW,315,0.0,4.0,73,0.00,,,0.02,weatherlink.com 1.10,2013-03-02 23:22:00,
2013-03-02 18:37:00,30.5,23.0,30.13,NNW,343,2.0,5.0,73,0.00,,,0.02,weatherlink.com 1.10,2013-03-02 23:37:00,
2013-03-02 18:52:00,30.4,23.0,30.13,NNW,338,0.0,2.0,74,0.00,,,0.02,weatherlink.com 1.10,2013-03-02 23:52:00,
2013-03-02 19:08:00,30.3,23.0,30.14,NNW,346,0.0,3.0,75,0.00,,,0.02,weatherlink.com 1.10,2013-03-03 00:08:00,
2013-03-02 19:23:00,30.3,23.0,30.14,NNW,330,1.0,5.0,74,0.00,,,0.02,weatherlink.com 1.10,2013-03-03 00:23:00,
2013-03-02 19:38:00,30.3,23.0,30.14,North,355,0.0,3.0,75,0.00,,,0.02,weatherlink.com 1.10,2013-03-03 00:38:00,
2013-03-02 19:53:00,30.2,23.0,30.14,NW,312,3.0,4.0,75,0.00,,,0.02,weatherlink.com 1.10,2013-03-03 00:53:00,
2013-03-02 20:08:00,30.1,23.0,30.14,NW,311,0.0,6.0,75,0.00,,,0.02,weatherlink.com 1.10,2013-03-03 01:08:00,
2013-03-02 20:23:00,30.0,24.0,30.14,NW,322,1.0,4.0,77,0.00,,,0.02,weatherlink.com 1.10,2013-03-03 01:23:00,
2013-03-02 20:38:00,29.9,24.0,30.14,NW,324,0.0,3.0,77,0.00,,,0.02,weatherlink.com 1.10,2013-03-03 01:38:00,
2013-03-02 20:53:00,29.8,24.0,30.14,NW,308,0.0,2.0,79,0.00,,,0.02,weatherlink.com 1.10,2013-03-03 01:53:00,
2013-03-02 21:08:00,29.6,24.0,30.14,NW,308,0.0,2.0,79,0.00,,,0.02,weatherlink.com 1.10,2013-03-03 02:08:00,
2013-03-02 21:23:00,29.6,24.0,30.14,West,278,0.0,3.0,80,0.00,,,0.02,weatherlink.com 1.10,2013-03-03 02:23:00,
2013-03-02 21:38:00,29.6,24.0,30.14,WNW,285,0.0,1.0,81,0.00,,,0.02,weatherlink.com 1.10,2013-03-03 02:38:00,
2013-03-02 21:53:00,29.5,25.0,30.14,West,271,0.0,6.0,82,0.00,,,0.02,weatherlink.com 1.10,2013-03-03 02:53:00,
2013-03-02 22:08:00,29.3,25.0,30.14,NW,308,3.0,4.0,83,0.00,,,0.02,weatherlink.com 1.10,2013-03-03 03:08:00,
2013-03-02 22:23:00,29.0,25.0,30.14,NNW,333,0.0,3.0,83,0.00,,,0.02,weatherlink.com 1.10,2013-03-03 03:23:00,
2013-03-02 22:38:00,28.8,25.0,30.14,WNW,298,2.0,4.0,84,0.00,,,0.02,weatherlink.com 1.10,2013-03-03 03:38:00,
2013-03-02 22:53:00,28.8,25.0,30.14,North,355,3.0,5.0,84,0.00,,,0.02,weatherlink.com 1.10,2013-03-03 03:53:00,
2013-03-02 23:08:00,28.8,25.0,30.14,NW,325,2.0,8.0,84,0.00,,,0.02,weatherlink.com 1.10,2013-03-03 04:08:00,
2013-03-02 23:23:00,28.8,24.0,30.14,NW,322,3.0,6.0,83,0.00,,,0.02,weatherlink.com 1.10,2013-03-03 04:23:00,
2013-03-02 23:38:00,28.7,24.0,30.14,NW,307,0.0,7.0,83,0.00,,,0.02,weatherlink.com 1.10,2013-03-03 04:38:00,
2013-03-02 23:53:00,28.7,25.0,30.14,NNW,336,0.0,6.0,84,0.00,,,0.02,weatherlink.com 1.10,2013-03-03 04:53:00,